• In Belarus
  • List of Countries
  • For 7 days
  • Water Temperature
  • Satellite Maps
  • Weather Map
  • Weather Widgets
  • user-avatar
    Login

    Hourly Weather Erdenetsagaan

    Today, 22 January, Tuesday

    Time Temperature Precipitation Wind Pressure Humidity
    00:00 -15°C° 0 mm 7 mps 666 mmHg 41%
    01:00 -15°C° 0 mm 6 mps 666 mmHg 43%
    02:00 -15°C° 0 mm 6 mps 666 mmHg 41%
    03:00 -14°C° 0 mm 5 mps 666 mmHg 43%
    04:00 -15°C° 0 mm 5 mps 666 mmHg 45%
    05:00 -15°C° 0 mm 5 mps 666 mmHg 47%
    06:00 -15°C° 0 mm 5 mps 666 mmHg 50%
    07:00 -15°C° 0 mm 5 mps 666 mmHg 54%
    08:00 -15°C° 0 mm 4 mps 666 mmHg 63%
    09:00 -14°C° 0 mm 4 mps 667 mmHg 61%
    10:00 -13°C° 0 mm 5 mps 667 mmHg 60%
    11:00 -12°C° 0 mm 5 mps 667 mmHg 59%
    12:00 -11°C° 0 mm 5 mps 667 mmHg 57%
    13:00 -10°C° 0 mm 5 mps 667 mmHg 56%
    14:00 -8°C° 0 mm 5 mps 667 mmHg 54%
    15:00 -10°C° 0 mm 5 mps 667 mmHg 57%
    16:00 -10°C° 0 mm 4 mps 667 mmHg 60%
    17:00 -10°C° 0 mm 4 mps 667 mmHg 63%
    18:00 -11°C° 0 mm 4 mps 668 mmHg 65%
    19:00 -11°C° 0 mm 4 mps 668 mmHg 67%
    20:00 -11°C° 0 mm 4 mps 668 mmHg 69%
    21:00 -11°C° 0 mm 4 mps 668 mmHg 68%
    22:00 -12°C° 0 mm 4 mps 668 mmHg 68%
    23:00 -12°C° 0 mm 4 mps 668 mmHg 67%

    Tomorrow, 23 January, Wednesday

    Time Temperature Precipitation Wind Pressure Humidity
    00:00 -12°C° 0 mm 3 mps 669 mmHg 65%
    01:00 -13°C° 0 mm 3 mps 669 mmHg 63%
    02:00 -13°C° 0 mm 3 mps 669 mmHg 61%
    03:00 -13°C° 0 mm 3 mps 669 mmHg 63%
    04:00 -13°C° 0 mm 2 mps 669 mmHg 64%
    05:00 -11°C° 0 mm 1 mps 669 mmHg 65%
    06:00 -11°C° 0 mm 1 mps 669 mmHg 70%
    07:00 -12°C° 0 mm 1 mps 669 mmHg 74%
    08:00 -12°C° 0 mm 0 mps 670 mmHg 78%
    09:00 -11°C° 0 mm 1 mps 670 mmHg 75%
    10:00 -12°C° 0 mm 2 mps 671 mmHg 72%
    11:00 -9°C° 0 mm 2 mps 671 mmHg 69%
    12:00 -9°C° 0 mm 2 mps 671 mmHg 67%
    13:00 -8°C° 0 mm 2 mps 671 mmHg 65%
    14:00 -8°C° 0 mm 3 mps 671 mmHg 63%
    15:00 -9°C° 0 mm 3 mps 671 mmHg 65%
    16:00 -10°C° 0 mm 3 mps 671 mmHg 68%
    17:00 -10°C° 0 mm 3 mps 671 mmHg 70%
    18:00 -12°C° 0 mm 3 mps 671 mmHg 71%
    19:00 -12°C° 0 mm 3 mps 671 mmHg 72%
    20:00 -13°C° 0 mm 3 mps 671 mmHg 73%
    21:00 -13°C° 0 mm 3 mps 671 mmHg 72%
    22:00 -13°C° 0 mm 2 mps 671 mmHg 70%
    23:00 -13°C° 0 mm 2 mps 671 mmHg 68%

    Day after tomorrow, 24 January, Thursday

    Time Temperature Precipitation Wind Pressure Humidity
    00:00 -14°C° 0 mm 2 mps 672 mmHg 64%
    01:00 -14°C° 0 mm 2 mps 672 mmHg 60%
    02:00 -12°C° 0 mm 1 mps 672 mmHg 56%
    03:00 -14°C° 0 mm 2 mps 672 mmHg 52%
    04:00 -15°C° 0 mm 2 mps 672 mmHg 49%
    05:00 -15°C° 0 mm 2 mps 673 mmHg 45%
    06:00 -15°C° 0 mm 2 mps 673 mmHg 45%
    07:00 -16°C° 0 mm 2 mps 673 mmHg 45%
    08:00 -16°C° 0 mm 2 mps 674 mmHg 45%
    09:00 -16°C° 0 mm 3 mps 674 mmHg 55%
    10:00 -16°C° 0 mm 4 mps 675 mmHg 66%
    11:00 -15°C° 0 mm 4 mps 675 mmHg 76%
    12:00 -14°C° 0 mm 5 mps 675 mmHg 75%
    13:00 -14°C° 0 mm 5 mps 675 mmHg 74%
    14:00 -14°C° 0 mm 6 mps 676 mmHg 72%
    15:00 -14°C° 0 mm 5 mps 676 mmHg 72%
    16:00 -14°C° 0 mm 5 mps 676 mmHg 72%
    17:00 -14°C° 0 mm 5 mps 676 mmHg 72%
    18:00 -15°C° 0 mm 4 mps 677 mmHg 73%
    19:00 -16°C° 0 mm 4 mps 677 mmHg 74%
    20:00 -16°C° 0 mm 4 mps 678 mmHg 75%
    21:00 -16°C° 0 mm 4 mps 678 mmHg 77%
    22:00 -17°C° 0 mm 4 mps 678 mmHg 79%
    23:00 -16°C° 0 mm 3 mps 679 mmHg 80%

    25 January, Friday

    Time Temperature Precipitation Wind Pressure Humidity
    00:00 -16°C° 0 mm 3 mps 679 mmHg 82%
    01:00 -17°C° 0 mm 3 mps 679 mmHg 83%
    02:00 -17°C° 0 mm 3 mps 679 mmHg 84%
    03:00 -17°C° 0 mm 3 mps 679 mmHg 85%
    04:00 -17°C° 0 mm 3 mps 679 mmHg 85%
    05:00 -17°C° 0 mm 3 mps 679 mmHg 86%
    06:00 -17°C° 0 mm 3 mps 679 mmHg 85%
    07:00 -18°C° 0 mm 3 mps 680 mmHg 85%
    08:00 -18°C° 0 mm 3 mps 680 mmHg 84%
    09:00 -16°C° 0 mm 3 mps 680 mmHg 76%
    10:00 -16°C° 0 mm 4 mps 680 mmHg 68%
    11:00 -15°C° 0 mm 4 mps 681 mmHg 61%
    12:00 -14°C° 0 mm 4 mps 680 mmHg 55%
    13:00 -12°C° 0 mm 4 mps 680 mmHg 50%
    14:00 -11°C° 0 mm 4 mps 680 mmHg 45%
    15:00 -12°C° 0 mm 4 mps 679 mmHg 47%
    16:00 -12°C° 0 mm 3 mps 679 mmHg 48%
    17:00 -13°C° 0 mm 3 mps 679 mmHg 50%
    18:00 -13°C° 0 mm 3 mps 679 mmHg 53%
    19:00 -14°C° 0 mm 3 mps 679 mmHg 56%
    20:00 -15°C° 0 mm 4 mps 679 mmHg 58%
    21:00 -15°C° 0 mm 4 mps 679 mmHg 58%
    22:00 -15°C° 0 mm 4 mps 678 mmHg 58%
    23:00 -16°C° 0 mm 4 mps 678 mmHg 57%

    26 January, Saturday

    Time Temperature Precipitation Wind Pressure Humidity
    00:00 -16°C° 0 mm 4 mps 678 mmHg 56%
    01:00 -16°C° 0 mm 4 mps 678 mmHg 54%
    02:00 -16°C° 0 mm 4 mps 677 mmHg 53%
    03:00 -16°C° 0 mm 4 mps 677 mmHg 52%
    04:00 -16°C° 0 mm 4 mps 676 mmHg 51%
    05:00 -16°C° 0 mm 4 mps 676 mmHg 50%
    06:00 -16°C° 0 mm 4 mps 675 mmHg 50%
    07:00 -16°C° 0 mm 4 mps 675 mmHg 50%
    08:00 -15°C° 0 mm 3 mps 675 mmHg 49%
    09:00 -14°C° 0 mm 4 mps 674 mmHg 45%
    10:00 -13°C° 0 mm 5 mps 674 mmHg 40%
    11:00 -12°C° 0 mm 5 mps 674 mmHg 35%
    12:00 -11°C° 0 mm 5 mps 673 mmHg 34%
    13:00 -10°C° 0 mm 6 mps 672 mmHg 32%
    14:00 -9°C° 0 mm 6 mps 671 mmHg 31%
    15:00 -10°C° 0 mm 6 mps 670 mmHg 34%
    16:00 -11°C° 0 mm 5 mps 669 mmHg 38%
    17:00 -11°C° 0 mm 5 mps 669 mmHg 41%
    18:00 -12°C° 0 mm 6 mps 668 mmHg 42%
    19:00 -13°C° 0 mm 7 mps 668 mmHg 43%
    20:00 -14°C° 0 mm 7 mps 668 mmHg 43%
    21:00 -15°C° 0 mm 8 mps 668 mmHg 47%
    22:00 -15°C° 0 mm 8 mps 667 mmHg 51%
    23:00 -15°C° 0 mm 8 mps 667 mmHg 55%

    27 January, Sunday

    Time Temperature Precipitation Wind Pressure Humidity
    00:00 -15°C° 0 mm 8 mps 667 mmHg 57%
    01:00 -16°C° 0 mm 8 mps 667 mmHg 60%
    02:00 -16°C° 0 mm 8 mps 666 mmHg 62%
    03:00 -16°C° 0 mm 8 mps 666 mmHg 65%
    04:00 -17°C° 0 mm 8 mps 666 mmHg 68%
    05:00 -17°C° 0 mm 7 mps 666 mmHg 72%
    06:00 -17°C° 0.1 mm 7 mps 667 mmHg 77%
    07:00 -17°C° 0.1 mm 7 mps 667 mmHg 83%
    08:00 -17°C° 0.1 mm 7 mps 668 mmHg 89%
    09:00 -16°C° 0.1 mm 8 mps 668 mmHg 80%
    10:00 -16°C° 0.1 mm 9 mps 669 mmHg 70%
    11:00 -15°C° 0.1 mm 10 mps 669 mmHg 61%
    12:00 -15°C° 0 mm 10 mps 669 mmHg 57%
    13:00 -15°C° 0 mm 10 mps 669 mmHg 53%
    14:00 -14°C° 0 mm 10 mps 669 mmHg 48%
    15:00 -15°C° 0 mm 9 mps 669 mmHg 48%
    16:00 -15°C° 0 mm 8 mps 669 mmHg 47%
    17:00 -14°C° 0 mm 7 mps 670 mmHg 46%
    18:00 -15°C° 0 mm 7 mps 670 mmHg 45%
    19:00 -17°C° 0 mm 7 mps 670 mmHg 43%
    20:00 -17°C° 0 mm 7 mps 671 mmHg 41%
    21:00 -17°C° 0 mm 6 mps 671 mmHg 42%
    22:00 -17°C° 0 mm 6 mps 671 mmHg 44%
    23:00 -17°C° 0 mm 5 mps 671 mmHg 46%
    Show more